Regional Weather Roundup
Issued by NWS

Home | Current Version | Previous Version | Graphics & Text | Print | Product List | Glossary On
Versions: 1 2 3 4 5 6 7 8 9 10 11 12 13 14 15 16 17 18 19 20 21 22 23 24 25 26 27 28 29 30 31 32 33 34 35 36 37 38 39 40 41 42 43 44 45 46 47 48 49 50
924
ASUS44 KLIX 201005
RWRLA
LOUISIANA WEATHER ROUNDUP
NATIONAL WEATHER SERVICE NEW ORLEANS LA
500 AM CDT MON OCT 20 2014

NOTE: "FAIR" INDICATES FEW OR NO CLOUDS BELOW 12,000 FEET WITH NO
      SIGNIFICANT WEATHER AND/OR OBSTRUCTIONS TO VISIBILITY.
      SKY/WX - SKY CONDITION AND SIGNIFICANT WEATHER.
      TMP - AIR TEMPERATURE.    DP   - DEWPOINT TEMPERATURE.
      RH  - RELATIVE HUMIDITY.  PRES - PRESSURE.
      HX  - HEAT INDEX.         WCI  - WIND CHILL INDEX.

*  THESE STATIONS ARE NOT NWS OR FAA STATIONS AND ARE NOT UNDER
   NWS QUALITY CONTROL.

LAZ040-048-061>063-065-066-069-201100-
SOUTHEAST LOUISIANA

CITY           SKY/WX    TMP DP  RH WIND       PRES   REMARKS
N.O. AUDUBON     N/A     61  59  94 MISG        N/A
N.O. INTL ARPT PTCLDY    60  56  86 CALM      30.02F
N.O. LAKEFRONT CLEAR     68  59  73 E6        30.03F
N.O. DOWNTOWN* FAIR      66  54  63 NE5       30.03F
SLIDELL        CLEAR     49  46  90 N3        30.04S
BATON ROUGE    CLEAR     53  50  89 NE5       30.04F
BOOTHVILLE     CLEAR     70  62  76 E3        30.02S
BELLE CHASSE   CLEAR     55  52  89 CALM      30.02F
BOGALUSA*        N/A     46  43  90 CALM      30.07S
NEW ROADS*     FAIR      53  51  94 CALM      30.04F
GONZALES*      FAIR      55  55 100 CALM      30.03S FOG
HAMMOND*       CLEAR     50  46  87 N3        30.06S
HOUMA*         CLEAR     58  58  98 CALM      30.02S
PORT FOURCHON* SUNNY     70  61  73 E3        30.04S

$$

LAZ041-044-053-054-201100-
SOUTHWEST LOUISIANA

CITY           SKY/WX    TMP DP  RH WIND       PRES   REMARKS
LAKE CHARLES   CLEAR     58  53  84 E3        30.02F
LAFAYETTE      PTCLDY    56  54  93 N3        30.03S
PATTERSON      NOT AVBL
SALT POINT       N/A     63  61  93 CALM      30.01S
NEW IBERIA     PTCLDY    60  57  89 CALM      30.03S
CHENAULT AIRPK NOT AVBL

$$

LAZ027-028-201100-
CENTRAL LOUISIANA

CITY           SKY/WX    TMP DP  RH WIND       PRES   REMARKS
FORT POLK      CLEAR     55  50  83 E2        30.04S
ALEXANDRIA INT CLEAR     48  47  96 NW3       30.04S
ALEXANDRIA     PTCLDY    47  45  93 CALM      30.05F

$$

LAZ001-002-201100-
NORTHWEST LOUISIANA

CITY           SKY/WX    TMP DP  RH WIND       PRES   REMARKS
SHREVEPORT     PTCLDY    50  48  93 CALM      30.06R
BARKSDALE AFB  CLEAR     50  49  96 SE2       30.07R
DTN SHREVEPORT CLEAR     52  49  89 CALM      30.06S

$$

LAZ014-016-201100-
NORTHEAST LOUISIANA

CITY           SKY/WX    TMP DP  RH WIND       PRES   REMARKS
MONROE         FOG       46  45  96 CALM      30.08R VSB 1/2
TALLULAH       CLEAR     42  41  96 CALM      30.08R

$$




USA.gov is the U.S. government's official web portal to all federal, state and local government web resources and services.